Regional Weather Roundup
Issued by NWS

Home | Current Version | Previous Version | Graphics & Text | Print | Product List | Glossary On
Versions: 1 2 3 4 5 6 7 8 9 10 11 12 13 14 15 16 17 18 19 20 21 22 23 24 25 26 27 28 29 30 31 32 33 34 35 36 37 38 39 40 41 42 43 44 45 46 47 48 49 50
548
ASUS43 KFSD 270202
RWRSD

WEATHER ROUNDUP FOR SOUTH DAKOTA
NATIONAL WEATHER SERVICE SIOUX FALLS SD
800 PM CST SUN FEB 26 2017

NOTE: "FAIR" INDICATES FEW OR NO CLOUDS BELOW 12,000 FEET WITH NO
SIGNIFICANT WEATHER AND/OR OBSTRUCTIONS TO VISIBILITY.


SDZ001>005-009-010-012>017-270300-
NORTHWEST AND NORTH CENTRAL SOUTH DAKOTA

CITY           SKY/WX    TMP DP  RH WIND       PRES   REMARKS
BUFFALO          N/A     24  19  81 NE8       29.70R WCI  15
FAITH            N/A     30  22  72 NW8       29.77R WCI  22
MOBRIDGE       CLOUDY    33  25  72 E6        29.76R WCI  28
$$

SDZ012>016-024>037-041>051-057-063-072>074-270300-
SOUTHWEST AND SOUTH CENTRAL SOUTH DAKOTA

CITY           SKY/WX    TMP DP  RH WIND       PRES   REMARKS
RAPID CTY ARPT CLOUDY    24  15  68 CALM      29.76R
PIERRE         CLEAR     28  15  58 W6        29.79S WCI  22
CUSTER         CLOUDY    16   3  56 W6        29.69S WCI   7
PHILIP         CLEAR     29  14  53 W12       29.80S WCI  19
PINE RIDGE     CLEAR     15   7  70 CALM      29.82S
SPEARFISH      FAIR      27  12  54 NW6       29.73S WCI  20
WINNER         FAIR      29  18  63 SW15      29.84S WCI  18
$$

SDZ004>011-016>023-039-040-270300-
NORTHEAST SOUTH DAKOTA

CITY           SKY/WX    TMP DP  RH WIND       PRES   REMARKS
ABERDEEN       CLOUDY    26  21  81 E6        29.83R WCI  19
WATERTOWN      CLOUDY    27  20  75 E12       29.82S WCI  17
BROOKINGS      CLEAR     29  24  82 S10       29.84S WCI  20
SISSETON         N/A     22  18  85 SE9       29.87S WCI  12
$$

SDZ017-020-022-023-036>040-048>070-270300-
SOUTHEAST SOUTH DAKOTA

CITY           SKY/WX    TMP DP  RH WIND       PRES   REMARKS
SIOUX FALLS    PTCLDY    31  24  75 SW8       29.89R WCI  23
HURON          CLOUDY    35  19  52 SW12      29.82S WCI  27
CHAMBERLAIN    CLEAR     31  22  71 SW10      29.84S WCI  22
MITCHELL       CLEAR     32  23  69 SW10      29.87R WCI  24
YANKTON        CLEAR     30  18  59 SW7       29.92R WCI  23
$$

ABBREVIATIONS USED IN REMARKS
   TC - TEMPERATURE IN CELSIUS
  WCI - WIND CHILL INDEX
   HX - HEAT INDEX
  VSB - VISIBILITY





USA.gov is the U.S. government's official web portal to all federal, state and local government web resources and services.